Weather History for Sanford, NC

Change the Weather History Date:

Monday, September 17, 2012

  Actual Average (KRDU) Record (KRDU)
Temperature  
Mean Temperature 71 °F 72 °F  
Max Temperature 80 °F 82 °F 97 °F (1931)
Min Temperature 62 °F 61 °F 43 °F (1966)
Degree Days  
Heating Degree Days 0 1  
Month to date heating degree days 1  
Since 1 July heating degree days 2  
Cooling Degree Days 6 7  
Month to date cooling degree days 158  
Year to date cooling degree days 1599  
Growing Degree Days 21 (Base 50)    
Moisture  
Dew Point 65 °F    
Average Humidity 89    
Maximum Humidity 100    
Minimum Humidity 65    
Precipitation  
Precipitation 0.23 in 0.15 in 3.41 in (1945)
Month to date precipitation 2.68  
Year to date precipitation 32.22  
Sea Level Pressure  
Sea Level Pressure 30.05 in    
Wind  
Wind Speed 0 mph (ENE)    
Max Wind Speed 5 mph    
Max Gust Speed -    
Visibility 7 miles    
Events Fog , Rain    
T = Trace of Precipitation, MM = Missing Value Source: NWS Daily Summary

Daily Weather History Graph

Daily Weather History Graph

Search for Another Location

Airport:

Trip Planner

Search our weather history database for the weather conditions in past years. The results will help you decide how hot, cold, wet, or windy it might be!

Date:

Astronomy

Sep. 17, 2012 Rise Set
Actual Time 7:00 AM EDT 7:19 PM EDT
Civil Twilight 6:35 AM EDT 7:45 PM EDT
Nautical Twilight 6:05 AM EDT 8:15 PM EDT
Astronomical Twilight 5:35 AM EDT 8:45 PM EDT
Moon 8:42 AM EDT (9/17) 8:07 PM EDT (9/17)
Length of Visible Light 13h 09m
Length of Day
12h 18m
Waxing Crescent, 3% of the Moon is Illuminated
Sep 17
Waxing Crescent
Sep 22
First Quarter
Sep 29
Full
Oct 8
Last Quarter
Oct 15
New

Hourly Weather History & Observations

Time (EDT) Temp. Heat Index Dew Point Humidity Pressure Visibility Wind Dir Wind Speed Gust Speed Precip Events Conditions
12:15 AM 62.6 °F - 60.8 °F 94% 30.12 in 10.0 mi Calm Calm - N/A   Overcast
1:15 AM 62.6 °F - 60.8 °F 94% 30.12 in 10.0 mi Calm Calm - N/A   Overcast
1:35 AM 62.6 °F - 60.8 °F 94% 30.12 in 10.0 mi Calm Calm - N/A   Overcast
1:55 AM 62.6 °F - 60.8 °F 94% 30.12 in 10.0 mi Calm Calm - N/A   Overcast
2:15 AM 62.6 °F - 60.8 °F 94% 30.11 in 10.0 mi Calm Calm - N/A   Overcast
2:35 AM 62.6 °F - 60.8 °F 94% 30.11 in 10.0 mi Calm Calm - N/A   Overcast
2:55 AM 62.6 °F - 60.8 °F 94% 30.10 in 10.0 mi Calm Calm - N/A   Overcast
3:15 AM 62.6 °F - 60.8 °F 94% 30.09 in 10.0 mi Calm Calm - N/A   Overcast
3:35 AM 62.6 °F - 60.8 °F 94% 30.09 in 10.0 mi Calm Calm - N/A   Overcast
3:55 AM 62.6 °F - 60.8 °F 94% 30.09 in 10.0 mi NNE 3.5 mph - N/A   Overcast
4:15 AM 62.6 °F - 60.8 °F 94% 30.09 in 3.0 mi NNE 3.5 mph - N/A   Overcast
4:35 AM 62.6 °F - 60.8 °F 94% 30.09 in 0.5 mi Calm Calm - N/A Fog Fog
4:55 AM 62.6 °F - 60.8 °F 94% 30.09 in 0.5 mi Calm Calm - N/A Rain Light Rain
5:15 AM 62.6 °F - 60.8 °F 94% 30.09 in 0.5 mi Calm Calm - 0.02 in Rain Rain
5:35 AM 62.6 °F - 60.8 °F 94% 30.09 in 1.0 mi North 3.5 mph - 0.04 in Rain Light Rain
5:55 AM 62.6 °F - 60.8 °F 94% 30.09 in 1.0 mi North 3.5 mph - 0.20 in Rain Heavy Rain
6:15 AM 62.6 °F - 60.8 °F 94% 30.09 in 3.0 mi Calm Calm - 0.02 in Rain Heavy Rain
6:35 AM 62.6 °F - 62.6 °F 100% 30.10 in 4.0 mi Calm Calm - 0.02 in   Drizzle
6:55 AM 62.6 °F - 62.6 °F 100% 30.10 in 3.0 mi Calm Calm - 0.02 in Rain Light Rain
7:15 AM 62.6 °F - 62.6 °F 100% 30.10 in 3.0 mi Calm Calm - N/A   Overcast
7:35 AM 62.6 °F - 62.6 °F 100% 30.10 in 2.5 mi Calm Calm - N/A   Overcast
7:55 AM 62.6 °F - 62.6 °F 100% 30.10 in 1.5 mi Calm Calm - N/A   Overcast
8:15 AM 62.6 °F - 62.6 °F 100% 30.11 in 1.5 mi Calm Calm - N/A   Overcast
8:35 AM 62.6 °F - 62.6 °F 100% 30.11 in 2.5 mi Calm Calm - N/A   Overcast
8:55 AM 62.6 °F - 62.6 °F 100% 30.11 in 3.0 mi Calm Calm - N/A   Overcast
9:15 AM 64.4 °F - 62.6 °F 94% 30.11 in 2.0 mi Calm Calm - N/A   Overcast
9:35 AM 64.4 °F - 62.6 °F 94% 30.10 in 1.8 mi Calm Calm - N/A   Overcast
9:55 AM 64.4 °F - 62.6 °F 94% 30.11 in 1.2 mi Calm Calm - 0.01 in Rain Light Rain
10:15 AM 64.4 °F - 64.4 °F 100% 30.11 in 1.8 mi Calm Calm - N/A   Overcast
10:35 AM 64.4 °F - 64.4 °F 100% 30.11 in 2.0 mi Calm Calm - N/A   Overcast
10:55 AM 66.2 °F - 64.4 °F 94% 30.10 in 2.0 mi Calm Calm - N/A   Overcast
11:15 AM 66.2 °F - 64.4 °F 94% 30.10 in 1.2 mi Calm Calm - N/A   Overcast
11:35 AM 68.0 °F - 66.2 °F 94% 30.10 in 1.8 mi Calm Calm - N/A   Overcast
11:55 AM 68.0 °F - 66.2 °F 94% 30.09 in 4.0 mi Calm Calm - N/A   Overcast
12:15 PM 69.8 °F - 66.2 °F 88% 30.09 in 10.0 mi Calm Calm - N/A   Overcast
12:35 PM 69.8 °F - 66.2 °F 88% 30.09 in 10.0 mi Calm Calm - N/A   Overcast
12:55 PM 71.6 °F - 68.0 °F 88% 30.08 in 10.0 mi SE 3.5 mph - N/A   Overcast
1:15 PM 73.4 °F - 68.0 °F 83% 30.07 in 10.0 mi Calm Calm - N/A   Overcast
1:35 PM 73.4 °F - 68.0 °F 83% 30.06 in 10.0 mi Calm Calm - N/A   Mostly Cloudy
1:55 PM 77.0 °F - 68.0 °F 74% 30.05 in 10.0 mi Calm Calm - N/A   Scattered Clouds
2:15 PM 78.8 °F - 68.0 °F 69% 30.04 in 10.0 mi Calm Calm - N/A   Mostly Cloudy
3:15 PM 80.6 °F 83.2 °F 68.0 °F 65% 30.01 in 10.0 mi ESE 4.6 mph - N/A   Mostly Cloudy
3:35 PM 80.6 °F 83.2 °F 68.0 °F 65% 30.01 in 10.0 mi Calm Calm - N/A   Overcast
3:55 PM 78.8 °F - 68.0 °F 69% 30.00 in 10.0 mi Calm Calm - N/A   Mostly Cloudy
4:15 PM 78.8 °F - 68.0 °F 69% 29.99 in 10.0 mi ESE 4.6 mph - N/A   Scattered Clouds
4:35 PM 80.6 °F 83.2 °F 68.0 °F 65% 29.99 in 10.0 mi Calm Calm - N/A   Clear
5:15 PM 78.8 °F - 68.0 °F 69% 29.98 in 10.0 mi Calm Calm - N/A   Scattered Clouds
5:35 PM 78.8 °F - 68.0 °F 69% 29.97 in 10.0 mi East 3.5 mph - N/A Rain Light Rain
6:15 PM 77.0 °F - 69.8 °F 78% 29.97 in 10.0 mi Calm Calm - N/A   Scattered Clouds
6:35 PM 77.0 °F - 69.8 °F 78% 29.96 in 10.0 mi Calm Calm - N/A   Mostly Cloudy
6:55 PM 77.0 °F - 69.8 °F 78% 29.96 in 10.0 mi Calm Calm - N/A   Mostly Cloudy
7:15 PM 73.4 °F - 69.8 °F 88% 29.97 in 10.0 mi SSE 3.5 mph - N/A   Scattered Clouds
7:55 PM 73.4 °F - 69.8 °F 88% 29.97 in 10.0 mi Calm Calm - N/A   Mostly Cloudy
8:15 PM 73.4 °F - 69.8 °F 88% 29.97 in 10.0 mi Calm Calm - N/A   Mostly Cloudy
8:35 PM 71.6 °F - 68.0 °F 88% 29.97 in 10.0 mi Calm Calm - N/A   Mostly Cloudy
8:55 PM 71.6 °F - 68.0 °F 88% 29.97 in 10.0 mi Calm Calm - N/A   Scattered Clouds
9:15 PM 71.6 °F - 68.0 °F 88% 29.97 in 10.0 mi Calm Calm - N/A   Clear
9:35 PM 71.6 °F - 68.0 °F 88% 29.98 in 10.0 mi Calm Calm - N/A   Clear
9:55 PM 69.8 °F - 68.0 °F 94% 29.98 in 7.0 mi Calm Calm - N/A   Clear
10:15 PM 69.8 °F - 68.0 °F 94% 29.97 in 10.0 mi Calm Calm - N/A   Clear
10:35 PM 69.8 °F - 68.0 °F 94% 29.97 in 10.0 mi Calm Calm - N/A   Clear
10:55 PM 69.8 °F - 68.0 °F 94% 29.96 in 10.0 mi Calm Calm - N/A   Scattered Clouds
11:15 PM 69.8 °F - 68.0 °F 94% 29.97 in 10.0 mi Calm Calm - N/A   Mostly Cloudy